Theta_e
331 331 334 335 334 333 332 331 333 334 334 335 337 337 336 336 335 335 335 334 335 335 332 331 331 331 331 331 331 332 334 334 335 336 336 335 334 334 333 332 330 330 330 331 330 329 328 328 329 330 330 331 331 331 332 332 331 331 331 331 330 330 329 329 329 329 329 329 329 330 332 332 332 332 332 332 332 332 332 331 330 330 330 330 330
335 334 336 337 335 334 333 334 336 337 338 337 336 336 336 336 336 336 335 334 335 334 331 330 330 330 330 330 330 332 333 333 335 336 335 333 333 333 331 331 330 329 330 330 330 329 328 327 327 328 329 330 330 331 331 331 331 330 330 330 329 329 330 329 329 329 329 329 329 330 330 331 331 331 331 332 332 332 332 332 331 331 331 331 331
337 337 337 335 336 337 336 337 338 338 337 337 335 334 335 336 337 336 334 335 334 332 331 330 330 329 328 329 330 332 332 333 335 335 333 332 332 331 330 330 328 328 329 329 328 327 327 326 325 325 326 327 328 329 329 329 329 329 329 329 329 329 329 329 329 329 329 329 329 329 329 329 329 329 331 331 332 332 332 332 332 332 332 331 331
336 337 337 335 336 337 338 339 339 338 335 335 334 333 336 336 335 334 332 334 333 330 330 329 329 329 328 330 330 331 332 333 333 333 332 332 330 329 329 329 328 327 328 327 326 324 324 325 324 323 322 322 323 324 325 324 324 324 324 325 326 326 327 327 328 328 328 328 328 328 328 328 328 328 329 331 331 331 332 332 332 332 332 331 331
335 337 338 337 338 337 338 339 338 338 335 334 333 333 336 334 334 335 332 333 332 329 330 329 329 329 327 331 332 331 333 333 332 330 329 329 328 328 328 327 327 327 327 326 323 321 320 319 317 315 314 314 315 316 316 315 315 314 314 316 317 319 320 321 322 322 323 325 326 327 327 327 327 328 329 329 329 330 331 331 331 331 331 331 332
333 336 337 338 339 337 338 338 338 337 335 333 333 335 336 334 336 336 332 332 332 329 330 329 329 329 328 331 332 331 331 331 331 329 328 327 325 327 328 327 326 326 326 324 320 315 311 309 307 306 305 304 305 305 305 305 305 305 305 306 307 308 309 310 311 313 315 317 319 322 324 325 326 327 327 327 328 328 329 330 331 331 331 331 331
330 333 335 338 339 338 338 338 337 335 334 332 335 337 336 335 334 333 332 332 331 329 329 329 329 331 330 331 331 331 331 329 329 328 328 327 323 324 325 324 323 321 319 317 313 307 304 303 302 302 303 302 302 302 301 301 301 301 301 301 301 301 302 302 303 304 305 307 309 313 317 320 322 325 326 325 326 327 327 328 329 330 331 331 330
331 334 336 338 339 338 338 338 335 335 333 332 335 337 336 335 331 327 328 331 330 328 328 329 330 331 331 331 331 330 330 328 328 326 324 324 322 321 317 313 311 308 307 306 304 302 302 302 302 302 303 302 302 302 302 301 301 301 301 301 301 301 301 301 301 301 301 301 302 304 307 310 314 319 322 324 325 325 326 327 327 328 329 330 330
335 336 338 339 337 336 337 337 334 334 334 333 335 337 335 335 330 320 320 328 330 327 325 327 331 332 331 331 331 329 327 325 324 322 319 317 316 313 308 304 303 302 302 302 302 302 301 302 302 302 302 301 302 302 302 301 301 301 301 301 301 301 301 301 301 301 301 301 301 301 301 302 304 307 311 316 320 323 324 325 326 327 327 328 329
335 334 335 335 334 335 337 336 335 334 335 335 336 336 334 335 331 318 314 321 324 321 321 326 332 333 331 330 331 329 325 323 321 318 315 310 306 304 303 302 302 302 302 302 301 302 301 301 301 301 301 301 301 301 301 301 300 300 300 301 301 301 301 301 301 301 301 301 301 301 301 301 301 301 302 304 309 313 319 323 325 326 326 326 327
330 330 332 334 333 333 334 334 335 334 334 336 337 335 332 330 325 316 314 316 316 317 320 328 333 332 330 330 329 325 320 317 315 311 307 303 302 302 302 302 302 302 302 302 302 301 301 301 301 300 301 301 300 300 301 301 300 301 301 301 301 301 301 301 301 302 302 302 302 302 301 302 302 301 301 301 301 303 307 313 318 323 325 325 325
331 332 333 334 334 332 330 332 334 334 335 336 336 334 330 326 318 314 318 316 313 316 322 331 333 331 330 328 323 320 319 312 305 304 303 302 303 302 302 302 302 302 302 301 301 301 301 300 301 301 300 301 300 300 301 301 301 300 301 301 301 302 302 302 302 302 303 303 303 303 302 302 303 303 303 303 302 301 301 302 307 314 320 323 324
333 332 330 331 334 332 329 329 330 332 335 336 335 332 325 321 319 318 319 316 314 314 319 330 333 331 330 327 322 322 325 317 302 302 303 302 303 302 302 302 301 302 301 301 301 301 300 300 300 301 300 301 300 300 301 301 301 300 301 301 302 302 302 303 303 303 303 303 304 305 304 304 305 306 306 305 304 303 303 301 301 303 308 314 320
332 330 328 328 331 331 330 331 332 333 335 334 332 329 321 319 325 328 323 315 312 311 316 329 332 332 331 329 326 325 328 321 305 302 303 302 302 302 301 302 301 301 300 300 301 300 300 300 300 300 300 300 300 300 300 300 300 300 301 301 302 302 303 303 303 304 304 304 306 308 307 305 305 305 305 307 308 307 305 303 302 301 301 303 308
331 330 326 326 330 332 331 332 334 334 333 331 329 324 318 320 329 334 330 319 310 305 315 328 331 332 332 331 329 327 328 325 313 307 305 303 301 301 301 301 301 300 300 300 300 300 300 300 301 300 300 300 299 300 300 300 300 300 301 302 302 303 303 303 304 304 304 305 308 309 308 307 307 307 306 307 308 308 307 305 304 303 302 301 301
330 329 328 328 331 333 333 333 334 333 331 330 326 319 315 317 324 331 332 326 311 303 312 323 326 330 332 330 331 330 328 326 322 315 312 307 301 301 301 300 300 300 299 300 299 300 299 300 300 300 299 299 299 299 300 300 300 300 301 301 302 302 303 304 304 304 304 306 308 308 308 308 308 308 308 307 307 307 307 307 306 305 304 303 302
329 330 330 331 332 333 334 334 334 331 330 329 323 317 315 314 319 327 331 326 311 304 307 311 316 326 330 329 330 330 327 326 323 319 318 312 301 300 301 300 300 300 300 301 300 300 300 300 300 299 299 299 299 299 299 300 299 299 299 299 301 301 302 303 304 304 304 306 308 307 307 307 307 308 307 307 307 307 307 307 307 306 306 304 304
332 332 332 332 333 333 334 333 331 329 328 325 319 316 315 313 315 320 323 319 309 304 305 305 312 322 327 327 327 326 324 323 322 320 320 314 303 300 301 302 302 301 301 302 301 301 300 300 300 300 300 300 299 299 299 299 299 299 299 299 300 300 301 302 303 304 304 304 306 305 306 306 307 307 307 306 307 306 307 307 306 306 306 306 305
334 334 333 333 333 333 333 332 329 327 324 320 316 315 314 313 313 312 312 311 308 306 305 305 309 317 322 322 319 320 321 322 323 321 319 316 309 305 306 308 307 305 303 302 303 303 302 302 301 301 301 301 301 300 300 300 300 301 300 300 301 301 302 303 303 304 304 304 304 304 305 307 307 306 307 307 306 306 306 306 306 306 307 307 306
334 334 333 333 332 333 332 330 327 324 319 316 316 314 313 313 310 307 306 306 307 306 304 304 305 308 311 311 309 311 315 319 322 320 317 316 313 311 311 312 312 309 304 303 305 305 304 303 303 303 302 303 303 301 301 301 302 302 300 300 301 302 303 303 304 304 304 304 304 303 305 306 306 305 306 306 305 305 306 306 306 306 307 307 306
333 333 333 332 332 331 331 329 325 320 317 315 314 313 312 310 306 304 304 304 305 305 304 304 304 304 304 304 304 304 306 314 319 318 316 314 314 313 313 313 314 311 305 304 305 305 305 303 302 303 302 303 303 302 301 302 302 301 300 300 301 301 303 303 304 305 304 304 304 303 304 304 305 305 305 305 305 305 305 305 305 306 306 306 305
333 332 332 330 329 329 329 326 321 317 315 314 313 312 309 305 304 304 304 304 304 304 304 304 304 304 303 303 303 303 303 307 312 314 314 314 312 312 312 312 312 310 306 305 305 305 304 303 302 302 301 302 303 300 300 301 301 300 299 300 301 302 303 304 304 304 304 304 304 303 303 303 304 305 304 304 304 304 304 305 305 305 305 305 305
332 331 330 329 328 328 327 322 317 315 314 313 312 309 305 303 304 304 303 304 304 304 303 303 303 303 303 303 303 303 302 303 307 310 313 315 313 310 310 312 311 309 306 304 304 304 304 303 302 302 301 302 302 300 300 301 301 300 300 300 302 303 304 304 304 304 304 304 303 303 303 302 302 303 304 304 304 304 304 304 304 303 303 304 303
330 328 328 328 328 328 324 319 316 315 313 313 309 305 303 303 303 303 304 303 303 303 303 303 303 303 302 303 302 302 302 302 303 306 311 314 314 311 310 311 310 308 306 304 304 304 304 303 302 302 301 301 301 300 300 302 302 300 300 301 303 304 304 304 304 304 304 304 303 303 303 302 302 302 303 303 303 303 303 303 303 302 302 302 302
328 328 328 329 329 326 320 317 315 313 313 310 306 303 303 303 303 303 303 303 303 303 303 302 302 302 302 302 302 301 301 301 301 302 306 310 313 312 310 310 310 307 305 304 304 303 303 303 301 301 301 300 300 300 300 302 302 299 300 303 304 304 303 303 304 304 304 303 303 302 302 302 302 301 302 302 303 303 302 302 301 301 301 301 301
327 329 329 329 327 322 318 316 314 313 312 307 303 303 303 303 303 303 302 303 303 302 302 302 302 301 301 301 301 301 300 301 301 300 302 306 310 312 311 310 309 308 305 304 304 303 303 304 303 301 301 300 300 300 301 302 301 300 301 303 304 304 303 304 305 304 303 303 302 301 302 302 302 301 301 301 302 302 301 301 301 301 301 300 301
327 329 329 328 325 320 317 315 313 312 309 304 302 302 302 302 303 302 302 302 302 302 302 302 301 301 301 301 301 300 300 300 300 300 301 303 307 311 313 312 310 309 307 305 304 303 303 303 303 302 301 301 301 300 301 301 301 300 302 304 304 303 303 304 304 303 302 302 301 301 302 302 302 302 301 301 302 301 301 301 301 300 300 300 301
329 329 328 327 324 321 317 314 312 309 305 302 302 302 302 302 302 302 302 302 301 302 301 301 301 301 300 300 300 300 300 300 300 300 300 301 304 308 311 311 311 311 309 306 304 303 302 303 303 302 302 301 301 301 301 301 300 300 302 303 303 302 303 304 303 302 302 301 301 301 302 302 302 302 301 301 301 301 301 300 300 300 300 300 301
329 328 327 325 324 320 316 312 310 307 303 302 302 301 302 302 302 302 302 301 301 301 301 301 301 300 300 300 300 300 300 300 300 300 300 299 300 302 304 307 309 310 309 308 306 303 302 304 304 303 302 300 300 301 301 300 299 301 302 303 302 302 304 303 302 302 302 301 300 301 302 302 302 301 301 300 300 300 300 299 298 299 299 299 300
327 327 325 325 322 318 314 311 309 305 302 302 301 301 301 301 302 302 301 301 301 301 301 300 300 300 300 300 300 300 299 299 300 300 300 300 299 299 300 302 304 307 308 308 307 305 303 303 304 304 302 300 300 301 300 299 299 301 302 301 301 302 303 302 302 302 302 300 300 301 301 301 301 301 301 300 300 300 299 299 298 298 298 298 298
326 325 324 325 322 315 312 311 307 303 301 301 301 301 301 301 301 301 301 301 301 300 300 300 300 300 300 299 299 299 299 299 300 300 300 299 300 301 300 300 301 303 306 306 307 306 304 303 304 305 303 301 300 301 300 299 299 300 302 301 300 302 302 301 302 302 301 299 300 301 301 301 301 301 301 301 300 300 300 299 298 298 298 297 297
325 325 325 323 318 313 311 308 304 302 301 301 301 301 301 301 301 301 301 300 300 300 300 300 300 299 300 300 299 299 299 299 299 300 300 299 300 301 301 300 299 300 302 303 305 305 304 303 304 304 303 301 300 301 300 298 298 299 301 301 301 302 301 301 302 302 301 299 299 301 301 300 301 301 301 301 300 300 300 299 298 298 297 297 296
325 325 322 318 314 311 309 306 302 301 301 300 300 300 300 301 301 300 300 300 300 300 299 299 299 299 299 299 300 300 299 300 300 300 301 301 301 300 300 299 299 299 299 300 302 303 303 304 304 304 303 301 300 301 300 298 298 299 300 300 302 302 302 301 302 301 300 298 299 300 300 300 300 301 301 301 300 300 300 299 299 298 297 296 296
323 322 317 313 311 310 307 303 301 300 300 300 300 300 300 300 300 300 300 300 299 299 299 299 299 299 299 299 299 300 300 300 300 300 301 302 302 300 299 299 298 299 299 300 302 303 303 304 304 303 303 301 300 300 299 297 298 299 300 300 301 301 301 302 302 301 299 297 298 300 300 300 300 300 300 300 300 300 300 300 299 298 297 297 296
320 318 314 311 310 309 305 301 300 300 299 300 300 300 300 300 300 300 300 299 299 299 299 299 299 299 299 299 299 300 300 300 300 300 300 301 301 300 299 299 298 298 299 301 303 303 304 304 304 303 302 301 300 299 298 297 298 299 300 301 302 301 301 302 302 301 299 296 297 299 300 300 300 299 299 300 300 301 301 300 299 298 298 297 297
318 314 312 310 309 307 303 300 299 299 299 299 300 300 300 300 300 300 299 299 299 299 299 299 299 299 299 299 299 300 300 299 299 299 299 299 299 299 299 299 298 298 299 302 303 303 304 304 303 302 302 301 299 298 297 297 297 298 299 301 302 302 301 302 302 302 299 295 296 299 300 299 299 298 297 297 299 300 301 300 299 299 298 298 298
316 313 310 309 308 305 301 300 299 299 299 299 300 300 299 300 300 299 299 299 299 299 299 299 299 299 299 299 299 300 299 299 299 299 299 298 298 298 298 298 298 298 299 301 303 303 303 303 303 301 301 300 298 297 297 297 297 298 298 300 302 302 302 302 303 302 299 296 295 299 299 299 299 299 297 297 297 298 300 300 299 299 299 299 299
313 311 309 307 306 303 300 299 299 299 299 299 299 299 299 299 299 299 298 299 299 299 299 298 298 298 299 299 299 300 300 299 299 299 298 298 298 298 298 298 298 298 298 299 301 303 303 303 302 301 300 300 298 296 296 296 296 298 298 299 301 301 302 302 302 302 300 296 295 298 299 298 298 299 299 298 296 296 298 300 300 300 300 300 300
312 309 309 307 305 303 300 299 299 299 299 299 299 299 299 299 299 299 298 299 299 298 298 298 298 298 299 299 300 300 299 299 299 299 298 298 298 298 298 298 298 298 297 297 299 301 303 303 302 301 300 299 297 296 295 296 296 298 299 300 301 301 301 302 302 301 300 297 296 297 298 298 298 298 299 298 297 295 296 298 300 300 300 300 300
316 310 308 307 305 303 301 300 300 299 299 299 299 299 298 298 298 299 299 299 299 298 299 298 298 298 299 299 300 299 299 299 298 298 298 298 298 297 298 298 297 297 297 296 296 299 302 303 301 300 299 298 296 295 295 295 296 296 298 300 301 301 301 302 302 302 300 298 296 296 297 297 297 298 298 298 297 296 295 296 298 300 300 300 301
320 311 308 307 305 304 303 301 301 300 300 299 299 298 298 298 298 298 299 299 298 299 299 298 298 299 299 299 299 299 299 298 298 298 297 298 297 297 297 297 297 297 296 296 295 296 299 302 301 300 299 297 296 296 295 295 295 296 298 300 301 301 301 302 302 301 300 299 297 296 298 298 298 297 298 298 297 296 297 296 296 298 300 301 301
319 312 309 308 305 304 304 303 302 301 300 300 299 299 298 298 298 299 299 299 298 298 298 298 298 298 298 299 299 299 298 298 298 298 297 297 297 297 297 297 297 297 296 296 295 295 296 298 300 300 298 296 295 295 295 294 295 295 297 299 300 300 300 302 302 301 300 300 298 297 297 298 298 298 298 298 297 297 297 298 297 297 298 300 301
318 313 310 308 306 305 305 304 303 302 300 300 299 299 299 299 299 298 298 298 299 299 298 298 298 298 298 299 299 298 298 298 298 297 297 297 297 297 297 297 296 296 296 295 295 295 294 295 297 298 296 294 295 295 294 294 294 295 296 298 300 300 300 301 302 301 300 300 299 298 298 298 298 298 298 298 298 298 298 298 298 297 297 298 300
317 313 311 309 307 306 306 305 304 302 301 300 299 298 298 299 298 298 298 298 299 298 298 297 297 297 298 298 299 299 298 298 297 297 297 297 296 296 297 297 297 296 296 295 295 295 295 294 295 296 295 294 295 295 295 295 294 294 295 297 299 299 300 300 301 302 301 300 300 299 298 299 299 299 299 298 297 298 298 298 298 297 296 296 297
316 313 311 309 308 307 306 306 305 302 301 299 299 299 298 298 299 298 298 298 298 298 298 297 297 297 298 299 298 298 298 298 297 297 297 297 297 298 299 300 300 299 297 296 295 294 294 294 294 295 295 295 296 296 296 296 295 295 295 297 298 299 299 300 301 301 301 300 300 299 298 299 299 299 299 298 297 298 298 299 298 298 297 296 296
316 314 311 309 308 307 307 307 305 302 300 299 298 298 298 298 299 299 299 299 299 299 299 298 297 297 298 298 298 298 298 298 297 297 297 297 298 300 302 302 303 302 300 297 295 294 294 295 296 296 296 296 296 296 296 296 296 296 296 298 299 299 299 300 300 300 300 300 300 299 298 299 299 299 299 299 298 297 298 298 298 298 297 297 296
317 314 311 309 308 307 307 307 305 302 300 299 298 298 298 298 299 300 300 299 299 299 299 298 297 297 297 298 298 298 298 298 297 297 297 297 299 302 303 303 303 302 301 299 296 294 295 296 298 298 297 297 297 297 297 297 297 296 297 298 299 298 299 300 300 300 300 300 299 298 298 298 298 299 300 299 298 298 297 298 298 298 297 297 296
316 313 311 309 308 307 307 307 305 301 300 300 299 298 298 298 298 299 299 298 299 300 299 298 297 298 298 298 298 298 298 297 297 297 296 297 299 302 303 303 302 301 301 299 296 295 296 298 299 299 298 298 298 297 298 297 297 297 298 298 298 298 299 300 300 299 299 300 299 298 298 298 298 299 300 299 299 299 297 297 298 298 297 297 297
315 313 311 310 308 307 307 307 305 301 300 300 298 297 297 297 297 298 298 299 300 300 299 298 297 298 298 299 299 298 298 297 297 297 297 296 298 302 303 303 302 302 300 297 295 296 297 299 300 299 299 299 299 299 299 298 298 298 298 298 298 298 298 299 299 299 299 300 299 298 298 298 298 298 299 299 299 299 298 297 297 297 297 297 297
314 312 311 310 309 307 307 307 305 302 300 299 298 297 297 297 297 298 299 300 300 299 299 298 297 297 298 298 298 298 298 297 297 297 297 296 297 299 301 301 302 302 299 295 295 297 298 299 300 299 299 299 299 300 299 299 299 299 299 298 298 298 298 299 299 299 299 300 299 298 298 298 298 298 299 299 299 300 298 297 297 297 297 297 297
313 312 311 310 309 308 308 307 305 302 300 299 297 297 296 296 297 298 299 300 300 299 299 298 297 297 297 297 298 298 298 297 297 297 297 296 296 297 298 298 299 299 296 295 296 298 299 299 299 299 300 300 300 300 300 300 300 299 299 299 298 299 299 299 299 299 299 299 298 298 298 298 298 298 298 298 299 299 299 298 298 297 297 296 296
Wind_Speed
9 9 10 7 5 3 4 3 3 6 8 6 5 3 4 3 3 5 4 3 3 3 2 4 5 3 3 4 5 5 5 4 4 6 7 7 8 8 9 10 10 11 11 11 12 12 13 13 13 12 12 12 12 12 12 12 13 13 12 13 15 16 16 17 17 17 18 17 16 15 15 15 16 17 17 17 17 18 18 19 20 19 18 17 16
10 8 9 11 12 10 11 11 10 9 8 6 5 4 2 3 4 1 2 0 2 3 4 4 4 4 5 6 7 5 2 3 5 6 6 6 7 8 9 10 10 11 11 12 13 13 14 14 14 14 14 13 13 13 12 13 14 15 16 18 18 19 19 19 20 20 20 19 17 15 14 14 15 16 17 17 18 18 18 19 19 20 20 20 19
13 11 12 14 14 13 13 12 10 8 7 6 5 4 2 3 1 4 4 2 1 2 6 5 4 5 6 7 6 6 5 3 6 7 8 8 9 9 10 11 12 13 14 15 15 14 15 17 17 16 16 16 16 15 15 15 16 18 19 20 20 21 21 20 20 21 21 20 19 18 16 15 15 16 17 17 17 17 18 19 20 20 21 22 22
14 14 11 12 13 11 12 10 8 8 8 7 6 5 3 3 1 1 2 4 2 5 6 4 5 5 6 6 2 5 7 5 6 6 6 7 9 10 11 13 14 15 16 17 17 16 17 19 18 18 18 18 18 17 17 17 19 20 20 20 21 21 22 21 21 21 20 19 19 21 20 18 17 17 18 17 17 17 17 19 20 20 22 23 24
14 13 9 10 11 10 11 10 9 9 9 8 6 6 4 3 3 3 3 4 3 5 6 3 5 3 4 5 2 5 5 6 9 8 7 6 5 6 9 12 14 16 17 18 18 18 19 19 19 19 19 18 18 17 18 18 19 20 20 20 21 21 22 22 21 21 21 19 18 20 22 22 20 19 19 20 20 20 18 18 19 20 21 22 24
12 14 12 11 11 11 12 11 10 10 9 8 6 5 4 3 5 2 3 4 1 3 4 3 4 3 4 5 6 6 4 7 8 8 10 9 3 3 6 8 11 15 17 18 20 20 19 19 18 18 17 16 16 16 17 18 19 20 19 19 20 20 21 21 22 21 21 20 19 19 21 23 22 20 21 21 22 22 20 19 19 20 20 22 24
11 12 13 13 11 12 13 10 10 9 8 9 6 5 5 4 7 7 7 6 1 2 3 3 2 2 3 4 7 8 6 7 5 3 5 5 6 5 7 7 9 12 13 16 18 19 18 17 17 16 16 16 16 16 16 17 18 19 19 19 19 19 19 20 21 21 21 21 21 20 21 22 22 22 23 23 23 23 23 22 21 20 19 20 23
10 11 12 11 11 12 12 9 9 8 8 8 6 4 4 4 5 7 8 7 2 3 4 4 1 1 5 5 5 7 4 4 1 2 1 4 8 9 10 9 9 10 10 11 12 14 15 16 16 16 17 17 16 16 16 17 18 20 21 20 21 21 21 21 20 20 21 21 21 21 21 22 22 22 23 24 25 25 25 24 23 22 21 21 22
11 11 10 7 5 6 7 7 8 8 7 7 6 4 3 2 2 4 8 7 4 3 4 6 3 2 6 5 5 6 2 0 2 4 5 6 8 9 11 11 11 10 10 11 11 12 13 14 15 16 17 17 17 17 17 17 19 20 21 21 22 22 23 23 23 22 21 21 20 20 21 21 22 23 23 24 25 26 26 26 25 25 25 25 23
10 7 7 6 4 4 4 5 7 7 7 6 5 4 4 4 3 5 7 7 6 6 5 7 5 3 6 6 4 3 1 2 4 6 7 8 9 9 9 11 11 11 11 12 13 13 14 14 15 16 16 17 18 19 19 19 21 21 21 21 21 22 22 23 24 24 24 23 22 22 21 20 20 21 23 24 24 25 26 26 26 26 27 27 25
8 7 9 8 4 4 5 5 7 7 7 6 3 5 5 4 4 6 7 6 6 6 7 8 6 7 7 5 3 4 2 3 4 5 8 10 10 9 9 9 10 11 12 14 14 15 16 17 17 17 17 18 19 20 21 23 23 22 22 22 22 23 23 23 24 24 24 25 25 25 24 22 21 20 20 22 23 24 25 25 26 26 27 27 27
7 8 10 9 5 5 6 6 7 6 6 7 5 6 5 5 5 6 6 6 5 6 9 10 6 7 5 3 3 3 3 8 8 8 9 10 9 9 9 9 11 13 14 15 16 16 18 17 18 18 19 20 22 22 23 25 25 25 24 24 25 25 25 25 25 24 24 25 25 26 26 25 24 23 21 20 20 21 23 24 25 27 28 27 27
8 8 9 10 7 6 8 9 7 6 7 8 8 7 5 7 7 4 4 5 4 5 9 12 9 7 5 1 1 1 4 8 10 11 11 10 9 10 10 11 12 13 14 15 15 17 18 18 19 20 21 22 23 23 24 25 26 26 26 27 27 27 27 27 26 25 25 25 25 26 26 26 25 24 24 23 21 20 20 22 24 26 28 29 28
10 9 9 10 8 7 10 10 8 7 8 8 8 6 5 9 8 2 3 3 3 5 9 14 11 9 6 3 3 1 3 5 9 12 12 11 10 10 10 11 13 14 14 15 17 19 20 19 20 22 23 23 23 23 24 25 25 26 27 28 29 29 29 29 28 27 26 26 25 26 26 26 25 25 25 25 24 22 21 21 22 24 26 28 28
10 9 9 10 9 9 11 11 9 7 6 5 6 6 7 10 11 6 3 4 4 6 11 14 13 11 7 5 7 5 1 2 5 10 12 12 10 9 11 12 14 16 16 17 19 21 21 21 22 24 24 24 24 24 24 25 25 26 28 29 30 30 29 29 29 28 28 27 26 25 26 26 26 26 26 25 24 25 25 23 23 23 24 26 27
10 10 9 10 10 10 10 11 10 7 5 6 7 7 9 10 11 11 6 5 4 6 11 13 13 15 11 7 8 6 4 4 2 5 9 11 9 8 12 14 16 16 17 19 21 22 24 23 23 24 24 24 24 23 23 24 26 26 28 29 29 29 28 28 28 28 29 27 26 26 26 26 26 26 26 26 26 26 27 27 26 24 23 24 25
11 11 10 11 11 9 9 9 9 9 8 9 9 9 11 10 11 13 10 7 4 6 10 10 12 15 13 8 7 6 5 5 2 2 5 9 9 11 15 17 17 15 16 19 21 22 23 23 23 24 24 24 23 23 22 23 26 27 28 28 26 25 25 24 25 26 27 26 25 26 26 26 26 27 27 28 28 28 28 28 28 27 26 24 24
11 11 12 12 11 9 9 8 10 13 12 11 11 11 11 10 12 13 11 8 6 6 8 9 12 14 12 8 7 7 7 4 1 1 2 6 8 11 16 18 19 19 17 17 21 23 23 23 25 25 24 23 23 24 22 23 26 28 29 29 27 26 26 25 25 25 25 25 25 26 27 26 27 27 29 29 29 30 30 29 28 28 28 27 25
13 13 12 13 12 11 11 10 10 12 11 11 12 10 9 8 9 10 11 10 10 9 9 9 10 11 10 7 6 7 9 6 3 2 1 2 4 7 11 13 16 22 20 16 21 23 23 25 25 24 23 22 23 23 22 23 26 28 31 31 29 30 32 31 30 29 27 27 28 30 28 26 27 27 28 29 29 29 29 29 28 27 26 26 26
15 14 13 13 13 13 13 13 12 11 10 11 10 8 8 8 8 9 10 11 11 11 11 10 9 9 8 7 7 8 9 9 7 4 2 2 3 6 9 11 11 18 21 18 20 20 20 22 22 21 21 20 20 21 21 23 25 28 32 31 30 33 34 33 32 32 32 33 35 37 33 29 29 30 30 30 29 29 28 28 27 26 25 25 25
17 16 15 13 13 14 15 15 11 10 10 10 9 8 8 8 8 9 9 10 10 11 11 11 12 11 10 9 9 9 8 9 9 6 5 5 4 5 6 9 8 12 18 18 18 15 15 17 18 19 19 18 17 20 22 24 26 30 31 29 30 32 32 31 30 32 35 36 38 40 39 36 33 32 32 31 30 30 29 28 27 26 26 25 25
16 16 14 13 14 15 15 12 10 10 10 10 9 9 8 9 10 11 10 10 10 10 10 11 12 12 11 11 10 10 9 9 9 8 7 7 5 4 3 4 5 9 15 15 13 11 12 14 17 17 18 17 17 21 24 25 28 30 30 27 29 31 31 29 28 30 33 35 37 39 41 42 38 34 33 32 31 30 29 28 27 26 27 27 25
16 15 15 14 14 14 12 10 11 11 10 10 9 9 9 10 11 12 12 11 11 11 11 11 11 10 10 9 10 9 9 9 9 9 9 8 7 5 3 3 4 7 10 13 11 10 10 12 16 16 17 17 18 23 25 25 27 29 28 27 29 30 31 28 27 29 32 34 37 39 41 43 42 37 34 33 31 29 28 27 27 26 26 26 26
16 15 14 14 13 11 10 12 12 11 10 10 10 10 11 12 12 13 13 13 13 13 13 12 11 11 11 10 9 9 9 9 8 9 10 10 9 6 5 6 5 4 7 9 10 10 9 12 16 15 18 19 20 24 26 24 26 28 27 27 27 29 30 27 26 29 32 34 38 41 42 44 43 40 35 32 31 29 28 28 28 28 26 26 26
16 14 13 13 11 9 11 12 11 10 10 9 10 11 11 12 13 13 13 13 13 13 13 13 12 11 11 11 11 10 10 9 8 8 9 10 10 9 9 6 5 5 6 8 10 10 9 11 15 17 19 21 23 25 26 24 25 27 26 26 26 27 28 26 27 29 32 35 39 42 43 43 42 40 38 34 31 30 30 29 28 28 27 27 26
15 13 12 11 10 10 11 11 10 10 10 10 11 12 12 13 13 13 13 13 13 12 12 12 12 12 12 12 11 11 10 9 9 8 7 8 9 11 10 6 5 5 5 7 9 10 10 9 13 18 20 22 24 26 27 24 25 27 26 25 24 26 27 26 27 29 32 36 40 42 42 41 40 41 40 35 31 30 30 29 29 28 28 27 26
15 13 11 11 10 11 12 11 11 11 10 11 12 13 14 14 15 14 14 14 13 13 13 13 13 12 12 11 11 11 10 10 10 10 9 8 8 10 9 7 6 4 3 7 9 11 11 9 11 17 21 22 23 27 27 24 25 26 26 25 24 24 26 26 27 29 32 36 40 42 41 40 39 40 39 35 32 32 31 29 30 30 29 28 26
14 12 10 10 12 13 13 12 12 11 11 12 12 13 14 15 15 15 15 15 14 14 13 13 13 13 12 12 11 11 11 11 11 12 12 11 10 8 8 8 8 6 5 7 9 11 12 12 13 17 21 22 23 25 26 25 25 26 26 25 23 23 24 25 27 29 32 37 40 41 40 40 39 38 38 36 34 32 31 31 32 31 30 28 25
13 11 10 12 14 15 14 14 13 13 13 13 14 15 15 16 16 16 16 16 15 15 14 14 13 13 12 12 12 12 12 12 12 13 14 14 14 11 8 8 8 7 7 7 8 11 13 14 15 18 21 22 23 25 26 26 25 25 25 25 23 23 24 24 27 29 32 37 39 38 39 40 40 38 38 40 39 37 35 36 36 33 32 30 27
11 10 10 13 16 16 15 14 13 13 14 15 16 16 17 17 17 17 17 16 16 15 14 14 13 13 13 12 13 14 14 14 13 13 13 15 16 13 10 8 8 9 9 8 7 10 13 15 17 19 21 22 23 24 25 25 25 24 24 24 23 24 24 24 25 27 32 38 39 38 39 41 40 40 39 41 42 42 42 43 41 37 35 33 32
10 10 12 15 17 17 15 14 14 15 15 16 17 18 18 18 18 17 17 17 16 16 15 14 14 14 14 14 15 15 15 14 14 13 13 14 15 12 11 10 9 10 9 8 7 8 12 15 17 18 20 22 22 23 24 25 24 23 23 23 23 24 25 25 26 26 31 38 39 38 40 40 40 41 41 42 43 43 44 45 44 41 38 37 37
10 12 14 16 17 17 16 15 16 16 17 18 18 18 18 18 19 18 18 17 16 16 16 15 14 14 14 15 16 17 16 15 14 15 14 13 13 12 11 10 10 10 9 10 8 7 10 14 17 17 19 21 22 22 24 24 23 22 22 22 23 25 26 27 27 26 31 39 39 37 39 40 40 42 43 44 44 44 45 46 46 44 41 38 39
13 13 15 17 19 18 17 17 17 17 19 19 19 20 20 20 19 19 18 18 17 17 16 16 15 14 14 15 15 16 15 14 14 15 13 11 11 11 11 11 10 10 10 11 11 9 11 13 16 16 17 20 22 21 23 24 23 22 22 22 23 25 26 27 27 27 32 39 39 36 38 38 39 43 46 46 46 46 46 46 46 46 42 38 40
15 15 17 20 20 19 19 18 18 19 20 20 21 21 21 21 20 20 19 18 18 17 17 16 16 16 15 15 15 14 14 13 13 13 12 9 9 10 11 10 10 10 11 12 12 11 13 14 15 16 16 19 21 21 23 25 23 21 22 22 24 25 26 26 27 28 33 39 38 35 37 37 38 43 45 45 47 47 47 47 48 47 42 39 40
16 18 20 21 20 20 19 18 19 20 21 21 22 22 22 22 21 21 20 19 18 18 17 17 16 16 17 16 16 15 13 13 13 12 11 10 9 10 10 9 9 10 11 12 11 11 13 14 14 15 16 18 20 20 22 23 22 21 21 21 22 25 26 25 25 27 34 39 37 33 34 35 36 42 45 46 48 49 49 50 50 47 44 40 39
18 20 21 20 20 19 18 18 19 20 21 22 23 22 23 23 22 21 20 19 19 18 17 17 17 17 17 17 16 15 14 13 12 12 11 10 9 9 9 9 8 9 11 11 10 10 11 12 13 15 16 17 19 20 22 23 22 21 21 21 22 24 26 26 25 26 33 39 35 29 31 34 34 38 46 51 53 53 53 53 52 49 45 41 39
20 21 21 20 19 18 17 19 20 21 22 23 23 23 24 23 22 22 21 21 20 19 19 18 18 18 18 17 16 15 14 13 12 11 11 9 8 8 9 9 9 9 10 10 9 8 9 11 12 14 15 16 18 20 22 24 24 22 22 22 22 24 26 25 25 26 32 40 36 28 29 33 33 34 42 50 54 56 56 55 54 52 48 43 41
20 21 21 20 19 18 18 19 21 22 23 23 23 24 24 23 23 23 23 22 21 20 20 19 19 19 18 17 16 15 14 13 12 11 11 10 8 7 8 9 9 10 11 10 8 7 7 9 11 13 14 16 18 20 22 23 24 23 23 24 24 25 26 25 26 26 31 39 38 29 27 33 35 34 38 45 51 55 58 57 55 53 51 47 43
19 20 21 21 20 18 19 20 22 23 23 24 25 25 24 24 24 25 24 23 22 21 20 20 20 19 18 17 15 14 12 11 10 9 9 9 8 8 8 9 10 11 12 11 8 6 6 8 10 12 14 16 17 20 22 23 23 22 23 25 26 27 27 25 25 26 30 38 39 31 29 34 36 35 36 41 46 52 58 61 58 55 53 50 46
16 20 21 21 20 18 19 21 22 23 24 25 25 25 25 26 25 25 24 22 22 21 21 21 20 19 17 15 13 12 12 10 9 8 7 7 7 8 8 9 11 12 13 13 11 8 6 6 9 11 13 16 18 20 22 24 25 24 24 24 25 27 28 25 24 25 29 37 39 33 31 34 37 35 35 38 42 47 54 59 62 59 55 53 50
14 19 21 21 20 19 20 21 22 24 25 25 26 26 27 27 26 25 24 23 22 22 21 21 21 19 16 14 13 13 12 10 9 8 8 7 7 7 8 9 11 12 13 14 14 12 8 6 9 11 13 16 18 21 23 24 26 25 23 22 23 26 27 25 24 25 28 34 39 36 33 34 37 37 36 37 40 44 48 53 60 61 57 55 54
13 19 21 20 20 21 21 22 23 25 25 26 27 27 27 27 26 25 24 23 23 22 21 21 20 18 16 15 14 13 12 11 9 8 8 7 6 6 8 9 10 12 14 15 15 15 12 8 8 11 14 16 17 20 22 23 24 24 23 23 23 25 27 26 25 26 29 32 37 38 35 35 38 38 38 39 39 41 44 47 53 60 60 57 56
15 20 21 20 22 22 22 23 24 26 27 27 28 28 27 26 25 25 24 23 22 21 21 21 20 18 17 16 14 13 11 10 9 9 8 6 6 6 7 9 11 13 14 16 17 17 15 12 10 10 14 16 17 19 22 23 24 25 23 23 24 26 28 28 27 28 30 31 36 39 36 36 39 39 39 41 40 39 42 45 46 54 59 58 56
17 21 21 21 22 22 23 24 25 27 28 28 29 28 27 26 25 24 23 23 23 22 21 20 19 18 18 16 15 13 11 10 9 9 8 6 5 5 6 8 11 13 15 17 18 17 16 15 13 11 14 18 18 20 24 25 26 26 24 22 25 26 27 28 26 26 29 30 34 39 37 34 38 39 39 43 43 39 40 43 45 49 55 57 57
19 21 21 22 23 23 24 24 26 28 29 29 29 29 27 26 25 24 23 23 22 21 20 19 19 19 18 16 15 13 11 10 9 7 6 5 4 4 7 9 11 13 15 17 18 17 17 16 15 14 15 19 20 20 23 25 27 28 25 22 25 26 26 26 25 24 27 28 31 37 38 34 36 39 40 43 45 41 40 42 44 45 49 53 56
20 22 22 23 23 24 25 25 27 29 29 29 30 29 28 27 26 25 24 22 20 18 18 18 18 18 16 15 15 13 12 10 8 6 4 2 1 4 8 9 10 12 14 16 18 18 16 15 15 16 16 19 20 20 21 23 25 27 25 22 24 26 25 24 23 22 24 25 28 35 38 36 36 37 38 42 44 44 43 42 42 43 46 49 52
19 21 23 23 24 24 24 25 27 28 28 30 30 29 29 28 27 25 24 23 22 21 20 19 18 17 15 15 16 14 13 11 8 6 3 1 2 4 6 8 9 10 13 15 17 16 14 12 14 16 17 18 19 18 19 21 21 23 24 21 21 24 23 22 22 22 22 22 26 34 37 36 36 36 36 38 41 43 44 42 39 41 44 46 48
16 19 22 23 23 24 23 25 28 27 27 29 29 29 29 28 28 26 25 26 26 25 24 23 21 19 17 17 17 15 13 11 8 6 3 1 1 4 3 3 5 6 9 12 14 12 9 9 13 15 16 17 17 16 18 19 19 21 24 23 22 23 23 23 23 24 23 21 25 34 36 34 36 36 35 36 37 40 44 42 39 39 43 44 45
17 19 20 22 23 24 23 25 28 26 26 28 28 28 28 28 28 27 26 27 27 26 26 25 23 22 21 18 17 15 13 11 8 7 5 3 2 2 1 2 2 3 8 11 12 10 7 9 11 14 14 15 16 16 17 18 17 20 23 24 23 23 23 23 24 25 24 21 24 33 35 33 34 35 34 35 35 37 43 43 40 39 41 43 43
18 19 19 20 22 23 23 26 27 24 24 26 28 28 28 28 28 28 27 27 26 25 25 25 24 22 20 18 17 16 14 12 10 8 6 5 4 3 3 3 2 5 8 10 9 8 8 10 10 11 13 14 15 15 16 16 16 18 21 21 21 21 22 23 23 24 25 22 25 31 33 32 34 35 34 36 36 37 41 42 40 40 42 42 42
19 19 17 18 20 21 23 25 24 22 22 26 29 29 29 29 30 29 27 25 24 24 23 23 23 21 19 18 17 14 12 11 11 9 7 6 5 5 4 4 3 5 7 9 7 6 8 11 11 12 12 14 14 13 15 15 14 16 19 18 18 19 20 22 22 23 24 24 26 29 30 31 34 34 35 37 37 37 40 42 40 41 43 43 41
Wind_Direction
210 179 173 174 195 170 167 203 203 198 206 244 269 257 236 237 40 36 3 344 330 330 32 29 20 31 21 18 9 24 42 9 350 358 359 356 358 357 358 360 358 0 0 1 1 0 1 0 358 354 353 353 353 353 353 352 346 343 339 334 334 333 334 333 331 333 335 339 338 334 330 323 316 310 307 304 301 297 295 296 299 304 310 314 315
196 182 187 184 191 185 184 198 205 209 209 223 245 237 209 80 45 337 228 132 355 347 39 45 35 33 30 43 41 46 46 349 11 20 15 21 20 8 1 359 358 359 357 354 352 353 356 356 353 348 347 343 340 339 335 335 333 329 325 324 324 324 324 323 322 323 324 327 330 332 328 323 320 315 311 307 302 298 295 293 292 295 299 303 304
185 187 206 195 189 188 189 198 201 208 215 211 218 225 176 110 140 246 199 118 64 62 58 49 51 54 50 58 69 50 9 8 52 37 24 26 18 7 2 357 352 353 349 346 345 348 349 348 346 343 341 337 333 332 328 325 321 321 322 321 321 320 319 319 318 318 319 319 319 320 318 318 319 315 312 310 307 303 298 296 294 290 289 292 295
183 187 206 197 187 186 189 201 204 205 207 198 197 191 168 150 153 303 107 73 36 79 70 37 42 66 69 52 79 63 27 32 62 49 42 36 22 9 359 352 345 346 344 338 338 341 341 340 338 335 333 331 329 327 325 322 319 319 320 319 318 318 317 317 316 315 316 317 316 316 314 313 312 310 310 310 309 307 302 301 300 291 286 288 289
188 184 197 201 192 187 190 205 208 204 198 189 190 173 170 167 103 38 79 73 18 78 88 82 54 49 77 39 21 93 71 55 46 32 29 26 45 28 7 359 347 343 339 331 331 333 336 336 334 331 330 329 326 324 323 321 318 317 319 319 319 318 317 317 316 315 314 313 311 310 308 308 308 307 308 306 306 305 301 302 302 297 293 291 288
199 184 189 202 201 196 194 202 204 206 198 179 176 164 175 166 127 130 117 97 27 76 83 118 90 53 92 66 42 59 64 77 62 44 33 11 22 51 14 7 348 339 332 326 328 333 337 339 337 336 339 339 334 333 332 328 324 323 325 325 323 321 320 319 318 317 316 312 308 305 301 302 303 304 304 303 303 302 299 297 296 298 300 295 292
210 196 194 201 203 201 196 199 201 203 192 174 170 161 177 185 167 171 140 116 135 110 81 103 109 61 96 85 74 72 65 89 92 81 69 3 345 358 355 351 337 330 326 324 328 333 341 345 346 348 355 358 350 349 349 345 339 337 340 340 336 332 329 326 323 322 318 315 313 308 302 299 299 298 298 298 298 297 296 294 291 291 297 297 295
220 215 210 209 205 199 191 195 201 191 176 174 178 177 193 202 197 182 145 124 127 142 108 90 56 37 90 82 111 123 105 98 114 298 306 315 334 347 348 351 345 339 339 340 338 342 350 354 359 2 7 6 359 0 3 358 352 351 352 350 347 344 341 338 334 331 325 321 319 313 308 303 300 297 293 293 292 291 291 292 292 291 293 293 291
225 222 223 236 227 205 186 180 189 180 166 178 188 194 196 156 149 174 158 145 135 147 130 108 92 86 113 127 149 146 138 303 295 321 331 342 357 355 351 357 4 5 4 8 8 9 11 11 12 12 12 12 8 10 13 9 5 3 360 355 353 350 348 346 343 341 335 331 329 320 315 312 307 301 296 292 289 287 287 288 290 291 292 291 289
233 239 235 257 262 226 199 161 172 178 166 177 197 207 196 166 161 160 162 170 162 162 144 123 129 158 164 172 174 170 191 299 316 340 353 8 17 10 2 2 13 25 28 27 27 26 28 28 26 23 21 22 20 18 21 21 17 12 7 3 0 358 355 351 349 347 342 339 337 331 327 324 317 309 303 298 292 288 286 286 285 286 287 288 289
237 246 228 231 238 213 207 174 176 184 168 164 197 212 202 190 183 160 156 171 170 162 135 128 163 189 183 187 222 264 305 358 350 4 15 21 24 20 19 18 22 34 39 37 34 35 35 35 35 34 31 31 29 25 24 24 19 16 14 11 8 5 1 358 355 351 347 345 342 338 335 334 328 320 313 307 302 297 291 286 284 282 282 282 282
225 228 216 216 221 198 200 192 184 187 169 168 197 216 207 177 159 156 163 170 174 172 143 144 189 204 203 250 281 281 17 38 37 40 31 27 29 29 32 35 35 37 41 40 39 40 39 38 39 38 35 34 31 28 26 21 15 15 15 14 11 8 3 360 357 353 350 346 344 340 337 336 334 331 327 320 312 305 298 291 284 279 277 277 277
215 219 213 213 214 190 188 190 188 200 201 201 215 229 216 172 146 138 179 175 179 190 158 156 180 197 201 233 350 346 31 37 40 41 34 29 31 35 39 43 45 45 48 48 47 48 43 40 41 39 36 34 31 29 28 21 14 12 13 12 9 6 3 359 356 354 351 346 344 342 338 337 337 336 333 330 324 315 305 295 287 281 276 274 273
216 220 219 217 212 186 181 181 177 198 218 224 228 229 199 163 145 138 246 218 178 183 167 162 175 202 212 160 143 268 18 40 50 45 34 29 30 38 46 51 57 55 53 52 50 50 46 40 41 40 37 35 31 28 27 23 16 13 14 12 7 4 360 356 354 352 350 347 347 347 343 339 336 334 332 334 334 327 314 302 293 287 282 279 276
213 215 219 216 207 190 181 178 173 184 204 221 226 208 173 159 155 158 237 244 182 173 174 169 168 185 203 180 183 201 80 77 65 50 37 30 29 45 56 57 61 58 55 54 51 50 47 42 41 40 37 34 30 28 26 22 17 16 15 11 5 1 357 354 352 351 350 349 351 351 348 345 342 339 337 335 332 327 322 316 306 296 289 285 283
206 207 212 206 200 190 178 184 188 175 177 219 221 186 168 173 168 160 179 218 191 171 181 185 176 174 186 196 199 199 172 178 156 48 38 32 30 51 60 58 60 60 58 55 51 49 45 42 42 41 38 34 30 27 25 22 19 19 17 10 3 358 354 352 350 349 349 350 352 351 350 350 348 347 343 337 334 331 329 326 320 311 301 291 287
198 204 207 200 198 189 181 199 198 176 187 220 213 185 176 180 176 169 183 206 190 169 178 191 190 183 190 195 185 187 185 187 173 54 37 28 34 54 59 55 51 49 54 53 48 46 43 41 42 41 37 32 27 25 24 21 19 19 16 9 1 356 355 353 351 350 350 350 352 352 351 350 348 348 344 338 337 336 333 329 326 321 314 305 296
187 196 200 197 196 193 200 215 200 189 203 209 198 193 186 180 181 183 192 191 167 166 169 176 187 191 199 197 177 172 170 173 157 80 57 33 41 54 55 51 42 33 34 43 42 37 35 35 35 34 30 25 23 21 19 20 19 16 10 3 360 2 3 3 3 4 1 359 358 355 351 350 348 346 343 340 339 337 334 331 328 324 321 315 308
186 191 196 196 196 203 215 222 209 202 204 192 187 191 186 186 191 193 196 184 167 166 164 164 178 187 195 196 183 173 164 162 156 132 161 94 44 34 36 33 32 28 20 29 38 27 22 26 25 22 19 16 16 14 13 17 18 12 3 358 3 8 8 8 11 12 10 6 3 358 353 351 349 344 342 341 338 336 334 333 331 329 325 321 317
193 196 199 199 202 211 221 226 220 203 186 178 180 182 184 192 195 195 196 188 176 170 163 156 160 161 167 170 166 170 173 172 156 126 141 140 27 1 12 4 15 25 14 26 41 22 11 20 18 13 10 7 6 2 8 16 14 8 360 358 7 11 8 9 12 12 9 6 2 359 355 352 349 344 342 340 337 335 334 333 331 329 326 322 321
196 199 204 205 206 216 224 225 212 188 176 173 175 182 190 192 188 185 185 185 180 173 168 162 159 153 152 153 154 162 174 180 167 133 107 106 59 8 356 346 359 16 10 31 48 22 10 17 13 9 6 4 1 1 13 20 15 7 360 1 11 12 9 10 11 9 7 4 359 356 353 350 348 345 342 339 337 335 334 333 332 329 327 325 323
193 197 205 209 210 217 226 219 193 178 177 175 176 186 189 185 182 175 170 173 172 170 169 165 162 160 159 159 158 160 164 170 167 143 119 110 80 36 355 343 359 4 11 37 46 22 20 15 8 9 6 7 5 9 22 24 16 6 359 6 14 12 9 9 9 8 5 1 356 353 350 347 345 345 343 340 338 337 335 334 331 327 327 328 325
190 195 203 210 216 221 217 197 182 180 178 176 181 186 182 178 176 169 163 163 162 162 162 159 158 156 155 157 154 152 153 154 153 145 134 120 91 54 48 60 29 3 23 45 34 22 29 12 10 14 9 12 13 16 26 26 14 2 358 9 14 10 5 4 7 7 2 358 355 352 349 345 344 345 345 343 341 339 337 333 330 327 326 326 326
191 198 205 212 223 224 201 186 184 182 180 182 184 181 177 172 169 167 164 161 160 159 155 152 151 148 144 142 140 138 138 139 140 144 143 134 119 93 85 89 63 38 54 52 31 32 34 10 14 19 13 19 21 19 26 25 9 357 0 11 12 7 2 2 8 5 358 356 353 351 349 347 346 347 348 346 345 342 338 336 335 333 330 326 324
194 200 205 214 223 212 192 188 185 180 183 186 182 177 173 168 166 165 163 161 160 157 152 148 144 142 139 133 132 131 129 131 133 140 146 148 145 124 105 97 81 84 76 43 25 38 43 14 13 20 18 23 24 21 25 23 5 356 5 13 10 3 360 5 8 1 355 354 353 351 349 349 348 349 350 351 348 345 341 342 341 337 335 333 330
200 202 205 214 212 196 190 190 183 184 189 184 177 172 167 165 163 162 161 158 155 151 147 145 141 137 135 130 130 128 126 130 131 131 134 143 150 138 125 113 94 103 85 46 29 31 40 22 7 14 18 21 23 21 23 17 1 358 8 15 9 358 358 7 5 357 355 355 354 352 350 350 351 351 353 353 350 347 345 345 344 341 340 340 339
202 201 206 211 200 191 194 193 188 189 189 182 177 170 165 165 163 161 160 155 152 150 146 143 139 135 133 131 130 128 128 129 125 121 116 119 137 143 139 124 104 109 82 56 42 26 30 28 11 12 13 16 22 21 18 11 358 0 12 14 4 356 1 7 2 357 358 357 354 353 353 355 355 355 357 357 353 350 349 347 343 342 342 343 342
197 196 203 206 201 201 201 194 189 190 185 179 175 168 165 165 163 162 159 154 153 150 146 142 139 136 133 130 129 128 127 126 122 117 112 109 115 128 137 124 102 87 61 46 37 23 24 25 18 15 9 11 22 21 13 5 359 5 15 10 359 360 6 5 0 0 360 357 354 354 358 1 359 360 2 1 360 356 353 352 347 343 342 342 339
191 190 198 203 205 207 201 191 190 191 184 176 171 166 166 166 167 166 160 157 155 149 146 143 140 138 136 133 130 127 124 123 120 117 115 109 101 99 116 128 122 103 73 44 25 14 17 20 16 12 7 10 21 18 8 2 2 10 14 5 1 8 9 2 1 3 0 356 356 358 3 5 2 3 4 2 3 1 358 356 353 349 345 341 336
188 190 200 207 209 205 197 192 193 192 183 176 170 167 169 170 171 168 162 158 155 149 147 145 142 139 136 134 131 127 125 122 119 117 117 111 100 89 88 100 120 118 93 65 39 9 10 21 17 9 3 7 16 12 4 2 5 14 13 4 9 15 9 3 3 3 359 355 357 1 4 5 3 4 3 2 1 360 358 356 353 350 346 340 333
189 200 212 216 211 202 194 193 194 190 182 177 172 170 172 173 172 168 162 159 155 151 149 147 145 143 140 138 133 128 125 122 119 114 109 106 101 90 80 80 94 107 103 91 67 15 9 18 14 7 359 1 9 6 1 3 8 17 12 6 14 16 9 8 8 4 357 355 357 359 1 2 2 3 3 2 0 358 356 353 350 348 345 340 336
195 213 220 216 205 196 194 194 194 188 181 177 173 172 173 174 173 169 162 159 157 154 152 151 149 148 147 144 138 133 129 126 121 112 103 98 97 92 84 81 82 89 95 92 73 33 22 20 11 5 357 357 4 1 358 2 12 20 14 9 15 13 9 12 14 6 356 355 359 359 358 360 1 3 4 3 1 358 354 351 348 347 346 344 342
198 210 210 203 197 194 194 194 191 186 181 176 173 174 176 175 173 168 163 161 160 157 154 153 152 150 150 148 143 139 136 132 124 115 104 92 89 88 84 82 81 79 80 76 62 39 32 25 12 3 354 353 359 359 358 2 11 18 15 13 16 11 8 12 15 7 356 357 1 360 358 359 0 3 4 3 1 359 355 352 350 350 351 349 347
198 199 197 196 195 195 194 192 187 184 180 176 175 177 177 175 172 168 165 164 163 161 159 158 156 153 151 147 143 140 137 133 126 119 114 105 94 87 80 78 78 76 70 62 49 32 25 21 9 359 354 354 356 358 1 3 8 14 13 15 17 13 9 12 12 5 358 360 2 0 359 360 2 4 4 4 3 1 358 357 356 356 355 352 349
195 194 195 196 197 197 195 191 186 183 180 178 179 179 178 177 174 170 167 166 166 165 162 160 158 155 151 148 144 141 137 132 127 121 119 116 108 97 86 79 76 73 67 53 37 25 18 13 4 356 355 355 353 358 3 6 11 14 12 16 18 13 11 16 14 3 360 3 4 2 1 3 8 10 11 11 8 4 3 3 1 360 357 354 351
196 195 195 198 200 200 195 189 185 183 182 182 182 180 180 180 176 171 168 168 167 166 164 162 160 157 153 151 149 147 141 136 131 126 120 114 109 102 92 83 76 70 65 51 31 19 13 7 358 354 355 352 352 360 4 6 14 17 14 17 18 11 11 16 14 3 360 4 5 7 8 9 11 11 12 14 12 8 7 6 5 3 360 357 354
199 196 196 198 202 201 194 188 186 185 185 186 183 182 183 182 177 172 169 168 169 167 166 165 162 160 158 155 154 150 145 140 135 128 119 110 104 96 87 79 70 65 66 53 31 23 15 3 353 351 353 349 351 3 6 4 10 16 18 22 20 11 9 14 14 3 360 4 6 10 11 10 8 4 5 9 10 10 10 8 7 4 1 359 357
200 197 195 199 202 200 194 190 189 189 188 187 186 185 185 182 176 172 171 172 173 171 170 169 166 164 163 161 160 156 150 145 142 136 125 115 104 91 78 70 61 58 64 58 42 34 22 2 347 348 353 348 350 4 9 7 9 11 13 20 21 13 8 12 13 2 359 3 5 10 12 8 6 1 359 2 5 9 11 10 8 6 4 2 359
201 200 197 199 201 198 194 193 193 191 190 189 188 186 185 182 178 176 177 177 176 174 174 173 171 170 169 168 164 156 148 143 140 136 126 118 107 89 74 64 57 52 55 56 52 50 36 6 346 346 350 348 352 3 9 11 13 13 13 14 14 10 6 12 13 360 356 2 5 12 17 11 8 5 0 0 3 8 11 12 10 8 7 4 1
203 203 202 202 200 194 193 194 193 192 191 190 189 188 186 184 182 181 182 180 177 177 177 176 176 175 172 167 160 151 145 141 137 130 119 110 101 88 74 62 55 50 49 49 48 54 52 12 350 348 348 349 356 3 8 13 13 14 17 14 8 4 2 10 12 358 354 0 4 12 19 13 9 10 6 0 1 5 9 11 11 10 9 7 4
203 200 203 203 197 191 191 192 192 191 192 192 190 189 188 187 186 185 184 181 180 179 179 179 179 176 169 164 160 154 149 146 141 132 121 109 97 84 72 62 54 48 45 42 39 41 48 24 356 351 349 352 358 1 7 14 12 10 15 15 9 3 0 5 9 359 352 356 1 9 17 14 8 9 8 1 358 1 5 8 10 10 11 10 7
202 196 199 200 193 192 192 191 192 192 193 194 192 191 191 190 189 188 185 183 182 181 181 182 180 173 169 169 166 159 155 153 146 137 127 115 102 84 69 59 52 46 41 37 33 31 34 32 11 355 351 355 0 1 6 13 14 11 13 13 9 4 359 360 3 359 352 351 355 3 13 15 8 6 7 3 358 359 2 6 8 8 11 12 10
198 195 197 195 191 193 193 192 194 194 195 196 194 193 194 192 190 189 186 183 181 181 184 184 179 174 173 173 169 164 163 160 152 144 134 120 103 85 70 57 47 43 37 31 28 26 24 27 23 2 352 358 4 5 7 11 14 13 11 12 10 3 358 355 355 355 351 347 348 354 5 13 10 6 5 3 1 360 1 4 6 6 8 12 12
197 196 195 192 191 193 193 194 197 198 198 198 197 196 194 191 190 188 186 183 182 183 186 185 180 177 178 176 172 171 171 168 162 155 141 129 112 84 64 51 40 33 31 26 21 19 17 19 23 13 1 3 7 8 8 9 10 8 8 13 11 3 356 354 354 353 349 345 344 348 357 7 7 5 5 4 4 3 0 2 6 6 6 10 13
199 197 193 192 192 193 194 197 201 203 202 200 200 199 194 190 188 186 184 184 184 185 187 185 183 184 183 180 177 176 177 176 174 165 150 145 135 74 36 27 23 19 20 17 12 12 12 13 19 19 10 7 7 8 7 5 4 3 3 9 9 360 355 355 356 354 348 345 344 347 354 3 3 360 1 3 5 6 3 1 4 7 6 7 12
202 198 195 194 193 194 196 200 206 208 205 203 202 200 195 191 188 185 183 181 180 183 188 188 189 189 187 185 183 181 183 183 181 173 156 141 97 49 21 6 2 2 4 6 4 3 5 11 17 17 13 9 5 3 2 360 359 358 358 3 2 355 353 355 356 355 352 347 344 347 354 1 1 356 355 357 2 6 6 3 3 6 6 6 9
204 198 197 196 195 197 198 203 212 213 207 205 205 201 197 193 189 185 183 184 185 189 191 192 192 190 188 191 191 188 187 186 184 177 154 59 33 54 26 355 351 351 347 350 354 352 355 8 15 13 11 7 1 358 357 355 355 354 355 1 358 349 350 355 355 356 357 351 346 349 354 359 1 357 351 352 358 4 6 6 4 4 5 6 8
200 195 197 198 198 199 199 207 217 217 210 207 206 202 200 196 192 191 192 193 193 192 193 193 192 191 193 197 196 192 190 189 190 184 165 142 107 87 54 330 342 345 324 330 342 343 349 14 18 10 5 360 356 355 355 354 352 351 353 358 356 348 348 352 351 354 360 355 348 351 354 355 360 358 350 348 356 1 3 6 6 4 3 5 8
195 194 197 198 200 200 201 211 221 219 212 208 205 203 201 199 197 197 198 197 196 196 197 197 196 198 200 201 199 195 192 193 194 191 188 193 175 126 157 247 307 301 294 319 337 339 356 27 23 7 356 352 351 352 355 355 351 350 353 355 352 347 348 351 348 348 355 356 349 351 354 354 357 357 352 352 358 0 1 4 7 7 4 4 7
191 195 198 200 202 201 204 215 223 222 213 207 203 201 202 202 202 200 199 200 200 201 201 201 201 204 205 206 206 200 196 196 199 200 203 207 215 222 216 210 238 272 295 325 338 344 11 30 25 8 352 347 350 351 353 353 347 350 356 352 346 347 351 353 348 343 349 357 353 351 354 356 355 355 353 354 359 2 2 4 7 8 7 6 7
191 196 198 200 202 200 205 215 223 223 215 207 203 201 201 203 204 203 202 202 202 203 204 203 205 207 207 211 215 210 203 202 203 207 213 220 235 249 242 235 248 280 314 334 338 357 22 25 21 12 351 344 351 349 344 346 348 353 356 349 347 354 355 353 349 345 348 356 355 353 357 359 356 356 355 353 353 357 1 4 7 9 8 9 10